Weather in Tungozero

Russia / Republic of Karelia     65°45′11″N   31°17′52″E
temp.,
°C
wind,
m/s
gust,
m/s
humid.,
%
clouds,
%
prec.,
mm/h
press.,
hPa
HPBL,
m
13 june, sun
sun1300:00+16s5106833 0.1 1001842
03:00+14s4118271 0.1 1001512
06:00+15s41080100 0.0 1000509
09:00+18s576498 0.0 9991031
12:00+17ssw4973100 1.3 999774
15:00+14w369097 4.1 1000553
18:00+12w3893100 1.3 1002514
21:00+12wsw3687100 1.6 1004286
14 june, mon
mon1400:00+9wsw38915 0.1 1004174
03:00+7wsw310875 0.1 1006213
06:00+10wsw4117798 0.0 1006349
09:00+14wsw68440 0.0 10061343
12:00+17wsw68365 0.0 10072023
15:00+17wsw6835100 0.0 10072027
18:00+15w61055100 0.0 10081601
21:00+12sse2477100 0.1 1007161
15 june, tue
tue1500:00+13sse41166100 0.1 1004486
03:00+14s61364100 0.1 1001925
06:00+11s71687100 1.9 998754
09:00+11s61488100 3.7 995837
12:00+14s71475100 0.7 9931616
15:00+10sw71291100 1.5 9931071
18:00+10wsw61386100 0.4 9981286
21:00+11wsw5107732 0.4 10001086
16 june, wed
wed1600:00+8wnw249161 0.4 1002123
03:00+7n129588 0.9 100545
06:00+8ne238380 0.1 1007307
09:00+11nw016598 0.1 1008646
12:00+11ssw2267100 0.0 1009782
15:00+14wsw4660100 0.6 10091365
18:00+13w5106751 1.4 10101434
21:00+12wsw59485 1.4 1011773
17 june, thu
thu1700:00+8wsw412655 0.0 1013439
03:00+6wsw311745 0.0 1015296
06:00+9wsw39665 0.0 1016326
09:00+15wsw58477 0.0 10171138
12:00+18wsw583732 0.0 10161681
15:00+19sw594259 0.0 10161657
18:00+17sw41154100 0.0 1015812
21:00+16nnw126773 0.0 101448